Regional Weather Roundup
Issued by NWS

Home | Current Version | Previous Version | Text Only | Print | Product List | Glossary On
Versions: 1 2 3 4 5 6 7 8 9 10 11 12 13 14 15 16 17 18 19 20 21 22 23 24 25 26 27 28 29 30 31 32 33 34 35 36 37 38 39 40 41 42 43 44 45 46 47 48 49 50
000
ASUS42 KKEY 231410
RWRKEY

FLORIDA REGIONAL WEATHER ROUNDUP FOR THE FLORIDA KEYS
NATIONAL WEATHER SERVICE KEY WEST FLORIDA
1000 AM EDT WED JUL 23 2014

...SOUTH FLORIDA AND THE KEYS...

CITY           SKY/WX    TMP DP  RH WIND       PRES   REMARKS
FORT MYERS     SUNNY     84  75  74 CALM      30.08S HX  92
SW REGIONAL AP SUNNY     83  76  79 SE3       30.09S HX  91
NAPLES         SUNNY     85  78  80 CALM      30.09R HX  96
MIAMI          PTSUNNY   83  78  85 CALM      30.09S HX  93
WEST KENDALL   LGT RAIN  83  77  82 CALM      30.09R HX  92
HOMESTEAD      LGT RAIN  81  73  78 W7        30.08S
MARATHON       PTSUNNY   88  79  74 SE8       30.07S HX 103
BOCA CHICA NAS CLOUDY    89  77  67 S6        30.08R HX 101
KEY WEST INTL  CLOUDY    87  77  72 S5        30.08R HX  99

...INTERNATIONAL WEATHER...

CITY           SKY/WX    TMP DP  RH WIND       PRES   REMARKS
NASSAU BAHAMAS MOSUNNY   86  75  70 SE10      30.12R HX  95
CANCUN MEXICO  PTSUNNY   86  75  70 SE8       30.06R HX  95
COZUMEL MEXICO PTSUNNY   79  77  94 SE3       30.06R

ADJACENT COASTAL WATERS...

STATION/POSITION TIME  SKY/WX   TEMP    WIND        PRES    WAVE
                                AIR SEA DIR/SP/G            HT/PER
                 (UTC)          (F)     (DEG/KT/KT) (MB)    (FT/S)
PULASKI SHOAL LI 1400            85     120/  4/  5 1018.6R
SAND KEY         1400            84     170/  2/  4 1018.6R
SOMBRERO KEY     1400            86     160/  9/  9 1019.1R
LONG KEY         1300            85 87  180/ 10/ 12 1019.2R
MOLASSES REEF    1400            85 86  160/ 16/ 18 1018.6R
FOWEY ROCKS      1400            85 85  140/ 18/ 19 1018.8S
Buoy 42080       NOT AVBL

$$


USA.gov is the U.S. government's official web portal to all federal, state and local government web resources and services.